Weather History for La Junta, CO

Change the Weather History Date:

Friday, April 5, 2013

  Actual Average Record
Temperature  
Mean Temperature 63 °F 50 °F  
Max Temperature 83 °F 65 °F 84 °F (1991)
Min Temperature 42 °F 34 °F 17 °F (1964)
Degree Days  
Heating Degree Days 2 16  
Month to date heating degree days 93 81  
Since 1 July heating degree days 4541 4829  
Cooling Degree Days 0 0  
Month to date cooling degree days 0 0  
Year to date cooling degree days 0 1  
Growing Degree Days 12 (Base 50)    
Moisture  
Dew Point 21 °F    
Average Humidity 28    
Maximum Humidity 49    
Minimum Humidity 6    
Precipitation  
Precipitation 0.00 in 0.04 in 0.52 in (1999)
Month to date precipitation T 0.16  
Year to date precipitation 0.35 1.62  
Sea Level Pressure  
Sea Level Pressure 29.72 in    
Wind  
Wind Speed 10 mph (WSW)    
Max Wind Speed 29 mph    
Max Gust Speed 33 mph    
Visibility 10 miles    
Events      
T = Trace of Precipitation, MM = Missing Value Source: NWS Daily Summary

Daily Weather History Graph

Daily Weather History Graph

Search for Another Location

Airport:

Trip Planner

Search our weather history database for the weather conditions in past years. The results will help you decide how hot, cold, wet, or windy it might be!

Date:

Astronomy

Apr. 05, 2013 Rise Set
Actual Time 6:32 AM MDT 7:21 PM MDT
Civil Twilight 6:06 AM MDT 7:47 PM MDT
Nautical Twilight 5:34 AM MDT 8:19 PM MDT
Astronomical Twilight 5:01 AM MDT 8:52 PM MDT
Moon 3:37 AM MDT (4/5) 2:51 PM MDT (4/5)
Length of Visible Light 13h 41m
Length of Day
12h 48m
Waning Crescent, 23% of the Moon is Illuminated
Apr 5
Waning Crescent
Apr 10
New
Apr 18
First Quarter
Apr 25
Full
May 2
Last Quarter

Hourly Weather History & Observations

Time (MDT) Temp. Windchill Dew Point Humidity Pressure Visibility Wind Dir Wind Speed Gust Speed Precip Events Conditions
12:53 AM 48.9 °F - 27.0 °F 43% 29.91 in 10.0 mi East 6.9 mph - N/A   Clear
1:53 AM 54.0 °F - 24.1 °F 31% 29.87 in 10.0 mi SSE 8.1 mph - N/A   Clear
2:53 AM 44.1 °F 40.8 °F 26.1 °F 49% 29.88 in 10.0 mi NNW 5.8 mph - N/A   Clear
3:53 AM 43.0 °F 40.3 °F 25.0 °F 49% 29.86 in 10.0 mi NW 4.6 mph - N/A   Clear
4:53 AM 48.9 °F - 21.9 °F 35% 29.84 in 10.0 mi WNW 12.7 mph - N/A   Clear
5:53 AM 45.0 °F 39.7 °F 24.1 °F 44% 29.84 in 10.0 mi West 10.4 mph - N/A   Clear
6:53 AM 45.0 °F 39.7 °F 23.0 °F 42% 29.84 in 10.0 mi West 10.4 mph - N/A   Clear
7:53 AM 45.0 °F 43.5 °F 25.0 °F 46% 29.86 in 10.0 mi SW 3.5 mph - N/A   Clear
8:53 AM 48.0 °F - 25.0 °F 41% 29.85 in 10.0 mi WSW 3.5 mph - N/A   Clear
9:53 AM 51.1 °F - 26.1 °F 38% 29.84 in 10.0 mi WSW 5.8 mph - N/A   Clear
10:53 AM 54.0 °F - 26.1 °F 34% 29.83 in 10.0 mi Calm Calm - N/A   Clear
11:53 AM 57.9 °F - 25.0 °F 28% 29.79 in 10.0 mi SSW 5.8 mph - N/A   Clear
12:53 PM 63.0 °F - 24.1 °F 23% 29.75 in 10.0 mi Calm Calm - N/A   Clear
1:53 PM 70.0 °F - 23.0 °F 17% 29.67 in 10.0 mi South 5.8 mph - N/A   Clear
2:53 PM 75.9 °F - 10.0 °F 8% 29.62 in 10.0 mi SSW 9.2 mph - N/A   Clear
3:53 PM 80.1 °F - 9.0 °F 7% 29.56 in 10.0 mi South 17.3 mph 25.3 mph N/A   Clear
4:53 PM 81.0 °F - 9.0 °F 6% 29.52 in 10.0 mi West 5.8 mph 18.4 mph N/A   Clear
5:53 PM 79.0 °F - 15.1 °F 9% 29.53 in 10.0 mi WSW 23.0 mph - N/A   Clear
6:53 PM 75.9 °F - 18.0 °F 11% 29.52 in 10.0 mi WSW 17.3 mph - N/A   Clear
7:53 PM 72.0 °F - 18.0 °F 13% 29.54 in 10.0 mi West 15.0 mph 25.3 mph N/A   Clear
8:38 PM 64.4 °F - 19.4 °F 18% 29.68 in 9.0 mi WSW 12.7 mph - N/A   Mostly Cloudy
8:51 PM 64.4 °F - 21.2 °F 19% 29.69 in 10.0 mi WSW 11.5 mph - N/A   Scattered Clouds
8:53 PM 64.9 °F - 21.0 °F 19% 29.59 in 10.0 mi WSW 10.4 mph - N/A   Mostly Cloudy
9:05 PM 64.4 °F - 21.2 °F 19% 29.70 in 10.0 mi WSW 13.8 mph - N/A   Partly Cloudy
9:53 PM 63.0 °F - 21.9 °F 21% 29.61 in 10.0 mi West 15.0 mph - N/A   Clear
10:53 PM 63.0 °F - 23.0 °F 22% 29.61 in 10.0 mi West 13.8 mph - N/A   Clear
11:53 PM 62.1 °F - 24.1 °F 23% 29.66 in 10.0 mi North 18.4 mph 29.9 mph N/A   Clear